Simultaneous Nadir Overpasses (SNOs) Predictions

Prediction of SNOs between NOAA-21 and NOAA-19 Satellite Orbit:

Table of predicted SNOs for the next 14.0 days since TLE Epoch: 8/4/2024
Index Date (NOAA-21) Time (NOAA-21) Lat,Lon (NOAA-21) SZA (NOAA-21 ) Date (NOAA-19) Time (NOAA-19) Lat,Lon (NOAA-19) SZA (NOAA-19 ) Distance(km) Time Diff (sec)
1 08/17/2024 20:30:57 72.44,-135.36 59.52 08/17/2024 20:29:47 72.44,-136.84 59.62 49.51 70
2 08/17/2024 21:21:49 -72.82, 31.16 120.06 08/17/2024 21:20:38 -72.84, 31.27 120.03 3.66 71
3 08/17/2024 22:12:34 72.80,-161.48 59.93 08/17/2024 22:11:37 72.83,-161.50 59.98 3.32 57
4 08/17/2024 23:03:19 -72.83, 5.78 120.03 08/17/2024 23:02:36 -72.82, 5.75 120.02 1.04 43
5 08/17/2024 23:54:05 72.85, 173.03 60.02 08/17/2024 23:53:34 72.87, 173.10 60.03 2.38 31
6 08/18/2024 00:44:50 -72.88, -19.71 119.95 08/18/2024 00:44:33 -72.86, -19.66 119.97 2.85 17
7 08/18/2024 01:35:35 72.86, 147.65 60.04 08/18/2024 01:35:32 72.85, 147.58 60.04 2.45 3
8 08/18/2024 02:26:20 -72.89, -45.09 119.92 08/18/2024 02:26:30 -72.90, -45.06 119.91 1.74 10



Historial Predications of SNOs between NOAA-21 and NOAA-19
